FW9926 Weather Reports


time (UTC)temp
F
wind
direction
speed
knots
gust
knots
rain 1hr
in
rain 24hr
in
rain mn
in
humidity
%
barometer
mb
20260507163051 67 0 2.6 4.3 0.00 0.00 0.00 34 1023.3
20260507161603 66 317 1.7 4.3 0.00 0.00 0.00 34 1023.4
20260507160050 65 317 0.9 4.3 0.00 0.00 0.00 35 1023.3
20260507154549 65 319 0.0 0.0 0.00 0.00 0.00 33 1023.2
20260507153059 64 0 0.0 0.0 0.00 0.00 0.00 36 1023.3
20260507151551 63 0 0.0 0.0 0.00 0.00 0.00 38 1023.2
20260507150055 62 0 0.0 0.0 0.00 0.00 0.00 37 1023.2
20260507144551 61 0 0.0 0.0 0.00 0.00 0.00 40 1023.1
20260507143049 60 0 0.0 0.0 0.00 0.00 0.00 40 1023.1
20260507141602 60 0 0.0 0.0 0.00 0.00 0.00 40 1022.9
20260507140053 59 0 0.0 0.0 0.00 0.00 0.00 40 1022.7
20260507134554 59 0 0.0 3.5 0.00 0.00 0.00 41 1022.6
20260507133101 58 360 1.7 4.3 0.00 0.00 0.00 41 1022.7
20260507131550 58 15 1.7 4.3 0.00 0.00 0.00 43 1022.7
20260507130055 57 26 1.7 3.5 0.00 0.00 0.00 45 1022.7
20260507124553 57 22 0.0 1.7 0.00 0.00 0.00 45 1022.6
20260507123050 58 0 0.0 3.5 0.00 0.00 0.00 44 1022.5
20260507121552 58 340 1.7 3.5 0.00 0.00 0.00 43 1022.4
20260507120104 58 346 1.7 4.3 0.00 0.00 0.00 44 1022.5
20260507114558 57 355 1.7 6.1 0.00 0.00 0.00 43 1022.4
20260507113056 57 11 1.7 4.3 0.00 0.00 0.00 47 1022.4
20260507111557 56 350 2.6 4.3 0.00 0.00 0.00 48 1022.4
20260507104605 55 326 2.6 4.3 0.00 0.00 0.00 54 1022.4
20260507103049 55 0 0.9 5.2 0.00 0.00 0.00 59 1022.4
20260507101545 56 337 2.6 6.1 0.00 0.00 0.00 56 1022.3
20260507100047 56 360 2.6 5.2 0.00 0.00 0.00 57 1022.3
20260507094555 55 0 0.0 0.0 0.00 0.00 0.00 61 1022.3
20260507093049 55 0 0.0 0.0 0.00 0.00 0.00 61 1022.3
20260507091552 55 0 0.0 0.0 0.00 0.00 0.00 59 1022.4
20260507090054 55 0 0.0 0.0 0.00 0.00 0.00 55 1022.4
20260507084548 55 0 0.0 0.0 0.00 0.00 0.00 55 1022.6
20260507083048 55 0 0.0 0.0 0.00 0.00 0.00 56 1022.7
20260507081550 54 0 0.0 0.0 0.00 0.00 0.00 54 1022.7
20260507080059 54 0 0.0 0.0 0.00 0.00 0.00 59 1022.7
20260507074554 54 0 0.0 0.0 0.00 0.00 0.00 58 1022.8
20260507073149 54 0 0.0 0.0 0.00 0.00 0.00 58 1022.8
20260507071549 54 0 0.0 0.0 0.00 0.00 0.00 58 1023.1
20260507070055 53 0 0.0 0.0 0.00 0.00 0.00 60 1023.1
20260507064608 53 0 0.0 0.0 0.00 0.00 0.00 60 1023.3
20260507063117 52 0 0.0 0.0 0.00 0.00 0.00 63 1023.3
20260507061552 52 0 0.0 0.0 0.00 0.00 0.00 66 1023.2
20260507060052 52 0 0.0 0.0 0.00 0.00 0.00 67 1023.1
20260507054556 52 0 0.0 0.0 0.00 0.00 0.00 64 1023.0
20260507053050 52 0 0.0 0.0 0.00 0.00 0.00 67 1023.1
20260507051556 52 0 0.0 0.0 0.00 0.00 0.00 69 1023.1
20260507050057 51 0 0.0 0.0 0.00 0.00 0.00 72 1023.1
20260507044551 50 0 0.0 0.0 0.00 0.00 0.00 78 1023.0
20260507043054 50 0 0.0 0.0 0.00 0.00 0.00 80 1023.1
20260507041553 51 0 0.0 0.0 0.00 0.00 0.00 79 1023.0
20260507040108 51 0 0.0 0.0 0.00 0.00 0.00 80 1022.9
20260507034618 51 0 0.0 0.0 0.00 0.00 0.00 81 1022.7
20260507033105 51 0 0.0 0.0 0.00 0.00 0.00 81 1022.6
20260507031603 52 0 0.0 1.7 0.00 0.00 0.00 80 1022.5
20260507030054 52 360 1.7 3.5 0.00 0.00 0.00 79 1022.4
20260507024604 52 5 1.7 3.5 0.00 0.00 0.00 77 1022.2
20260507023058 53 0 0.9 3.5 0.00 0.00 0.00 75 1022.0
20260507021601 54 355 1.7 3.5 0.00 0.00 0.00 73 1022.1
20260507020048 54 338 1.7 4.3 0.00 0.00 0.00 72 1021.8
20260507014556 55 11 1.7 4.3 0.00 0.00 0.00 69 1021.8
20260507013103 56 336 1.7 6.1 0.00 0.00 0.00 66 1021.8
20260507011552 57 322 1.7 5.2 0.00 0.00 0.00 63 1021.8
20260507010055 58 286 0.9 5.2 0.00 0.00 0.00 63 1021.7
20260507004553 59 5 0.9 6.1 0.00 0.00 0.00 61 1021.7
20260507003048 59 337 2.6 8.7 0.00 0.00 0.00 60 1021.7
20260507001608 60 5 2.6 7.0 0.00 0.00 0.00 61 1021.5
20260507000051 60 336 1.7 4.3 0.00 0.00 0.00 61 1021.4
20260506234559 61 284 1.7 5.2 0.00 0.00 0.00 62 1021.2
20260506233047 61 22 1.7 6.1 0.00 0.00 0.00 61 1021.3
20260506231555 61 0 0.9 7.8 0.00 0.00 0.00 56 1021.3
20260506230053 61 5 1.7 8.7 0.00 0.00 0.00 57 1021.2
20260506224604 61 16 1.7 7.0 0.00 0.00 0.00 57 1021.3
20260506223057 62 325 1.7 5.2 0.00 0.00 0.00 55 1021.4
20260506221552 62 0 0.0 7.0 0.00 0.00 0.00 57 1021.5
20260506220107 60 355 0.9 8.7 0.00 0.00 0.00 55 1021.7
20260506214551 60 13 3.5 7.8 0.00 0.00 0.00 56 1021.6
20260506213053 61 21 2.6 8.7 0.00 0.00 0.00 56 1021.7
20260506211556 61 352 4.3 8.7 0.00 0.00 0.00 57 1021.6
20260506210050 60 5 1.7 7.8 0.00 0.00 0.00 57 1021.6
20260506204556 60 360 1.7 7.0 0.00 0.00 0.00 61 1021.7
20260506203101 60 0 2.6 7.8 0.00 0.00 0.00 57 1021.8
20260506201556 60 10 1.7 6.1 0.00 0.00 0.00 59 1021.9
20260506200053 60 5 1.7 7.8 0.00 0.00 0.00 60 1022.0
20260506194554 60 330 2.6 5.2 0.00 0.01 0.00 57 1022.2
20260506193059 60 351 0.9 4.3 0.00 0.01 0.00 61 1022.2
20260506191552 58 5 1.7 5.2 0.00 0.01 0.00 58 1022.3
20260506190052 57 0 1.7 5.2 0.00 0.01 0.00 63 1022.3
20260506184550 58 13 1.7 7.8 0.00 0.01 0.00 61 1022.2
20260506183058 57 0 1.7 5.2 0.00 0.01 0.00 67 1022.2
20260506181600 56 348 2.6 5.2 0.00 0.01 0.00 65 1022.3
20260506180054 55 346 2.6 5.2 0.00 0.01 0.00 64 1022.1
20260506174553 55 319 2.6 5.2 0.00 0.01 0.00 60 1022.0
20260506173121 54 355 1.7 7.0 0.00 0.01 0.00 62 1021.8
20260506171555 53 5 1.7 4.3 0.00 0.01 0.00 62 1021.8
20260506170057 52 360 1.7 4.3 0.00 0.01 0.00 65 1021.6
20260506164550 51 333 1.7 7.0 0.00 0.01 0.00 66 1021.5